User: anonymous   Login
Location: New Plymouth
(39.0670°S, 174.0830°E)
Time: 03:10:30
(UTC+12:00)
Language:

PRISM - Orbit

View from above orbital plane
View from above orbital plane
View from above satellite
View from above satellite

Ground track
Ground track

The orbit data is extracted from the following two-line orbital elements,

1 33493U 09002B   19235.31459440  .00000155  00000-0  19138-4 0  9990
2 33493  98.1196 158.7572 0014639 330.5012  29.5381 14.96701827574964
Epoch (UTC): 23 August 2019 07:33:00
Eccentricity: 0.0014639
inclination: 98.1196°
perigee height: 567 km
apogee height: 587 km
right ascension of ascending node: 158.7572°
argument of perigee: 330.5012°
revolutions per day: 14.96701827
mean anomaly at epoch: 29.5381°
orbit number at epoch: 57496

The dashed part of the orbit path shows where the satellite is in the earth's shadow,  

DLR